TimeEDT,TemperatureF,Dew PointF,Humidity,Sea Level PressureIn,VisibilityMPH,Wind Direction,Wind SpeedMPH,Gust SpeedMPH,PrecipitationIn,Events,Conditions,WindDirDegrees,DateUTC
12:15 AM,59.0,53.6,82,30.17,10.0,NW,3.5,-,N/A,,Clear,310,2013-07-29 04:15:00
12:35 AM,59.0,53.6,82,30.17,10.0,Calm,Calm,-,N/A,,Clear,0,2013-07-29 04:35:00
12:55 AM,57.2,53.6,88,30.16,10.0,Calm,Calm,-,N/A,,Clear,0,2013-07-29 04:55:00
1:15 AM,59.0,53.6,82,30.16,10.0,Calm,Calm,-,N/A,,Clear,0,2013-07-29 05:15:00
1:35 AM,55.4,55.4,100,30.16,10.0,Calm,Calm,-,N/A,,Clear,0,2013-07-29 05:35:00
1:55 AM,57.2,53.6,88,30.16,10.0,Calm,Calm,-,N/A,,Clear,0,2013-07-29 05:55:00
2:15 AM,57.2,51.8,82,30.16,10.0,Calm,Calm,-,N/A,,Clear,0,2013-07-29 06:15:00
2:35 AM,55.4,51.8,88,30.16,10.0,Calm,Calm,-,N/A,,Clear,0,2013-07-29 06:35:00
2:55 AM,55.4,51.8,88,30.16,10.0,Calm,Calm,-,N/A,,Clear,0,2013-07-29 06:55:00
3:15 AM,55.4,51.8,88,30.16,10.0,North,3.5,-,N/A,,Clear,350,2013-07-29 07:15:00
3:55 AM,57.2,51.8,82,30.16,10.0,Calm,Calm,-,N/A,,Clear,0,2013-07-29 07:55:00
4:15 AM,55.4,51.8,88,30.16,10.0,Calm,Calm,-,N/A,,Clear,0,2013-07-29 08:15:00
4:55 AM,53.6,53.6,100,30.17,10.0,Calm,Calm,-,N/A,,Clear,0,2013-07-29 08:55:00
5:15 AM,51.8,51.8,100,30.18,10.0,Calm,Calm,-,N/A,,Clear,0,2013-07-29 09:15:00
5:55 AM,53.6,53.6,100,30.19,10.0,Calm,Calm,-,N/A,,Clear,0,2013-07-29 09:55:00
6:15 AM,53.6,53.6,100,30.19,10.0,Calm,Calm,-,N/A,,Clear,0,2013-07-29 10:15:00
6:35 AM,53.6,53.6,100,30.20,10.0,Calm,Calm,-,N/A,,Clear,0,2013-07-29 10:35:00
6:55 AM,51.8,51.8,100,30.21,10.0,Calm,Calm,-,N/A,,Clear,0,2013-07-29 10:55:00
7:15 AM,53.6,53.6,100,30.21,10.0,Calm,Calm,-,N/A,,Clear,0,2013-07-29 11:15:00
7:35 AM,55.4,55.4,100,30.21,10.0,Calm,Calm,-,N/A,,Clear,0,2013-07-29 11:35:00
7:55 AM,57.2,55.4,94,30.21,10.0,Calm,Calm,-,N/A,,Clear,0,2013-07-29 11:55:00
8:15 AM,59.0,59.0,100,30.22,10.0,Calm,Calm,-,N/A,,Clear,0,2013-07-29 12:15:00
8:35 AM,62.6,53.6,72,30.23,10.0,NNE,3.5,-,N/A,,Clear,30,2013-07-29 12:35:00
8:55 AM,62.6,53.6,72,30.23,10.0,NE,4.6,-,N/A,,Clear,40,2013-07-29 12:55:00
9:15 AM,64.4,51.8,64,30.23,10.0,North,3.5,-,N/A,,Clear,360,2013-07-29 13:15:00
9:35 AM,62.6,50.0,63,30.23,10.0,NE,5.8,-,N/A,,Clear,40,2013-07-29 13:35:00
9:55 AM,64.4,51.8,64,30.24,10.0,NNE,4.6,-,N/A,,Clear,20,2013-07-29 13:55:00
10:15 AM,64.4,51.8,64,30.24,10.0,NNW,4.6,-,N/A,,Clear,340,2013-07-29 14:15:00
10:35 AM,64.4,51.8,64,30.24,10.0,NNE,6.9,-,N/A,,Clear,20,2013-07-29 14:35:00
10:55 AM,64.4,51.8,64,30.25,10.0,NNE,5.8,-,N/A,,Clear,30,2013-07-29 14:55:00
11:15 AM,68.0,53.6,60,30.25,10.0,North,4.6,-,N/A,,Scattered Clouds,360,2013-07-29 15:15:00
11:35 AM,66.2,53.6,64,30.25,10.0,North,4.6,-,N/A,,Scattered Clouds,10,2013-07-29 15:35:00
11:55 AM,68.0,53.6,60,30.26,10.0,Calm,Calm,-,N/A,,Clear,0,2013-07-29 15:55:00
12:15 PM,68.0,53.6,60,30.26,10.0,South,3.5,-,N/A,,Scattered Clouds,180,2013-07-29 16:15:00
12:35 PM,69.8,53.6,56,30.26,10.0,Calm,Calm,-,N/A,,Scattered Clouds,0,2013-07-29 16:35:00
12:55 PM,69.8,51.8,53,30.25,10.0,Calm,Calm,-,N/A,,Scattered Clouds,0,2013-07-29 16:55:00
1:15 PM,69.8,53.6,56,30.25,10.0,NW,4.6,-,N/A,,Clear,310,2013-07-29 17:15:00
1:35 PM,71.6,53.6,53,30.25,10.0,NNW,5.8,-,N/A,,Scattered Clouds,340,2013-07-29 17:35:00
1:55 PM,71.6,53.6,53,30.25,10.0,West,6.9,-,N/A,,Clear,260,2013-07-29 17:55:00
2:15 PM,71.6,53.6,53,30.25,10.0,NNW,4.6,-,N/A,,Scattered Clouds,340,2013-07-29 18:15:00
2:35 PM,71.6,53.6,53,30.25,10.0,Calm,Calm,-,N/A,,Clear,0,2013-07-29 18:35:00
2:55 PM,73.4,55.4,53,30.25,10.0,North,3.5,-,N/A,,Clear,360,2013-07-29 18:55:00
3:15 PM,73.4,55.4,53,30.24,10.0,North,3.5,-,N/A,,Clear,360,2013-07-29 19:15:00
3:35 PM,73.4,55.4,53,30.24,10.0,North,5.8,-,N/A,,Scattered Clouds,360,2013-07-29 19:35:00
3:55 PM,73.4,53.6,50,30.24,10.0,Calm,Calm,-,N/A,,Scattered Clouds,0,2013-07-29 19:55:00
4:15 PM,73.4,55.4,53,30.24,10.0,WNW,4.6,-,N/A,,Scattered Clouds,290,2013-07-29 20:15:00
4:35 PM,73.4,55.4,53,30.24,10.0,NW,4.6,-,N/A,,Clear,310,2013-07-29 20:35:00
4:55 PM,73.4,53.6,50,30.23,10.0,North,4.6,-,N/A,,Scattered Clouds,360,2013-07-29 20:55:00
5:15 PM,75.2,55.4,50,30.24,10.0,NW,5.8,-,N/A,,Scattered Clouds,310,2013-07-29 21:15:00
5:35 PM,73.4,53.6,50,30.23,10.0,North,3.5,-,N/A,,Scattered Clouds,350,2013-07-29 21:35:00
5:55 PM,73.4,55.4,53,30.23,10.0,North,6.9,-,N/A,,Clear,360,2013-07-29 21:55:00
6:15 PM,73.4,53.6,50,30.23,10.0,NNW,5.8,-,N/A,,Clear,330,2013-07-29 22:15:00
6:35 PM,71.6,53.6,53,30.24,10.0,NNW,8.1,-,N/A,,Clear,340,2013-07-29 22:35:00
6:55 PM,73.4,55.4,53,30.25,10.0,NW,4.6,-,N/A,,Clear,320,2013-07-29 22:55:00
7:15 PM,71.6,55.4,57,30.25,10.0,North,5.8,-,N/A,,Clear,10,2013-07-29 23:15:00
7:35 PM,69.8,55.4,60,30.25,10.0,NNE,5.8,-,N/A,,Clear,30,2013-07-29 23:35:00
7:55 PM,69.8,55.4,60,30.26,10.0,NNE,3.5,-,N/A,,Clear,20,2013-07-29 23:55:00
8:15 PM,68.0,55.4,64,30.27,10.0,NNE,4.6,-,N/A,,Mostly Cloudy,20,2013-07-30 00:15:00
8:35 PM,64.4,57.2,77,30.28,10.0,North,3.5,-,N/A,,Mostly Cloudy,10,2013-07-30 00:35:00
8:55 PM,62.6,55.4,77,30.28,10.0,NNE,3.5,-,N/A,,Scattered Clouds,20,2013-07-30 00:55:00
9:15 PM,64.4,55.4,73,30.29,10.0,North,3.5,-,N/A,,Scattered Clouds,350,2013-07-30 01:15:00
9:35 PM,64.4,55.4,73,30.30,10.0,North,3.5,-,N/A,,Clear,10,2013-07-30 01:35:00
9:55 PM,62.6,55.4,77,30.30,10.0,North,3.5,-,N/A,,Clear,360,2013-07-30 01:55:00
10:15 PM,62.6,55.4,77,30.31,10.0,Calm,Calm,-,N/A,,Clear,0,2013-07-30 02:15:00
10:35 PM,62.6,55.4,77,30.31,10.0,Calm,Calm,-,N/A,,Clear,0,2013-07-30 02:35:00
10:55 PM,62.6,55.4,77,30.31,10.0,Calm,Calm,-,N/A,,Clear,0,2013-07-30 02:55:00
11:15 PM,62.6,55.4,77,30.31,10.0,Calm,Calm,-,N/A,,Clear,0,2013-07-30 03:15:00
11:35 PM,62.6,55.4,77,30.31,10.0,Calm,Calm,-,N/A,,Clear,0,2013-07-30 03:35:00
11:55 PM,62.6,53.6,72,30.30,10.0,Calm,Calm,-,N/A,,Clear,0,2013-07-30 03:55:00